Regional Weather Roundup
Issued by NWS Spokane, WA

Home | Current Version | Previous Version | Text Only | Print | Product List | Glossary On
Versions: 1 2 3 4 5 6 7 8 9 10 11 12 13 14 15 16 17 18 19 20 21 22 23 24 25 26 27 28 29 30 31 32 33 34 35 36 37 38 39 40 41 42 43 44 45 46 47 48 49 50
000
NZUS01 KOTX 290610
RWROTX
EASTERN WASHINGTON/NORTHERN IDAHO ROUNDUP
NATIONAL WEATHER SERVICE, SPOKANE WA
1100 PM PDT SAT MAR 28 2015

Note: "fair" indicated few or no clouds below 12,000 feet with no
significant weather and/or obstructions to visibility.

...NORTHEAST WASHINGTON AND NORTHERN IDAHO PANHANDLE...

CITY           SKY/WX    TMP DP  RH WIND       PRES   REMARKS
SPOKANE INTL   CLEAR     45  35  68 S10       30.28R
SPOKANE DOWNTO CLEAR     44  35  70 CALM      30.30R
COEUR D ALENE  PTCLDY    46  34  61 S10       30.29R
DEER PARK      CLEAR     41  33  73 S9        30.28R
SANDPOINT      PTCLDY    45  34  65 S5        30.27S
BONNERS FERRY  FAIR      48  36  61 SW8       30.24R

...SOUTHEAST WASHINGTON AND SOUTHERN IDAHO PANHANDLE...

CITY           SKY/WX    TMP DP  RH WIND       PRES   REMARKS
WALLA WALLA    CLEAR     51  36  56 SE9       30.31F
PULLMAN/MOSCOW CLEAR     39  33  79 CALM      30.33R
LEWISTON       CLEAR     47  34  60 CALM      30.33R
LOWELL           N/A     44  42  93 CALM      30.38R

...COLUMBIA BASIN...

CITY           SKY/WX    TMP DP  RH WIND       PRES   REMARKS
EPHRATA        CLOUDY    54  32  43 W7        30.26R
MOSES LAKE     CLOUDY    50  36  58 CALM      30.28R
TRI CITIES     CLEAR     49  38  65 SW5       30.30S
HERMISTON      CLEAR     47  37  68 S12       30.31R
PENDLETON      CLEAR     42  36  79 SE8       30.31S

...EAST SLOPES CASCADES...

CITY           SKY/WX    TMP DP  RH WIND       PRES   REMARKS
THE DALLES     MOCLDY    53  39  59 W6        30.31S
YAKIMA         MOCLDY    53  37  54 NE5       30.29R
ELLENSBURG     MOCLDY    47  39  74 NW8       30.28R
WENATCHEE      CLOUDY    52  35  52 W8        30.27R
OMAK           CLOUDY    48  32  53 CALM      30.22S

...SOUTHERN BRITISH COLUMBIA...

CITY           SKY/WX    TMP DP  RH WIND       PRES   REMARKS
PENTICTON      CLOUDY    50  36  57 N5        30.23R

...WESTERN MONTANA...

CITY           SKY/WX    TMP DP  RH WIND       PRES   REMARKS
MISSOULA       MOCLDY    40  31  70 N6        30.32R

...NEIGHBORING CITIES...

CITY           SKY/WX    TMP DP  RH WIND       PRES   REMARKS
SEATTLE        CLOUDY    51  40  65 SW6       30.35S
CALGARY        PTCLDY    37  32  81 S8        30.02F



USA.gov is the U.S. government's official web portal to all federal, state and local government web resources and services.